,,,PA_Meas_PMT16A,,PR_Meas_QMR101_102,,RH_Meas_QMH101,,SR_Meas_QMS101,,TA_Meas_QMH101,,GenWind,,GenWind,
date,time,status,PA,status,PR,status,RH,status,SR,status,TA,status,DirAvg,status,SpdAvg,
2012-01-14, 00:00:05,VALID,1001.94,VALID,0,VALID,73.4356,VALID,0,VALID,27.4408,VALID,282,VALID,2.51484,
2012-01-14, 00:01:05,VALID,1001.92,VALID,0,VALID,73.1839,VALID,0.0815089,VALID,27.4797,VALID,267,VALID,1.71758,
2012-01-14, 00:02:05,VALID,1001.92,VALID,0,VALID,72.7871,VALID,0,VALID,27.5187,VALID,251,VALID,1.83125,
2012-01-14, 00:03:05,VALID,1001.94,VALID,0,VALID,72.8024,VALID,0,VALID,27.5403,VALID,257,VALID,1.13242,
2012-01-14, 00:04:05,VALID,1001.92,VALID,0,VALID,72.8024,VALID,0,VALID,27.5187,VALID,277,VALID,0.9875,
2012-01-14, 00:05:05,VALID,1001.92,VALID,0,VALID,72.8558,VALID,0.0815089,VALID,27.5187,VALID,318,VALID,0.882813,
2012-01-14, 00:06:05,VALID,1001.92,VALID,0,VALID,73.283,VALID,0,VALID,27.5598,VALID,290,VALID,1.4875,
2012-01-14, 00:07:05,VALID,1001.9,VALID,0,VALID,73.9696,VALID,0.0815089,VALID,27.5187,VALID,288,VALID,1.55,
2012-01-14, 00:08:05,VALID,1001.92,VALID,0,VALID,74.3587,VALID,0,VALID,27.4992,VALID,273,VALID,1.35664,
2012-01-14, 00:09:05,VALID,1001.9,VALID,0,VALID,74.435,VALID,0,VALID,27.4602,VALID,281,VALID,0.841406,
2012-01-14, 00:10:05,VALID,1001.88,VALID,0,VALID,74.1985,VALID,0,VALID,27.4428,VALID,293,VALID,2.50625,
2012-01-14, 00:11:05,VALID,1001.82,VALID,0,VALID,73.7331,VALID,0.0815089,VALID,27.4408,VALID,286,VALID,2.30742,
2012-01-14, 00:12:05,VALID,1001.85,VALID,0,VALID,73.7789,VALID,0.0815089,VALID,27.4602,VALID,270,VALID,1.06914,
2012-01-14, 00:13:05,VALID,1001.79,VALID,0,VALID,73.2067,VALID,0,VALID,27.4623,VALID,298,VALID,2.03828,
2012-01-14, 00:14:05,VALID,1001.82,VALID,0,VALID,73.3059,VALID,0.0815089,VALID,27.4797,VALID,315,VALID,1.05391,
2012-01-14, 00:15:05,VALID,1001.82,VALID,0,VALID,73.6263,VALID,0,VALID,27.4818,VALID,209,VALID,0.887109,
2012-01-14, 00:16:05,VALID,1001.84,VALID,0,VALID,73.5348,VALID,0,VALID,27.4602,VALID,279,VALID,1.3707,
2012-01-14, 00:17:05,VALID,1001.8,VALID,0,VALID,73.8857,VALID,0,VALID,27.4818,VALID,306,VALID,1.74375,
2012-01-14, 00:18:05,VALID,1001.8,VALID,0,VALID,73.9773,VALID,0,VALID,27.4602,VALID,263,VALID,0.662891,
2012-01-14, 00:19:05,VALID,1001.84,VALID,0,VALID,73.6797,VALID,0,VALID,27.4623,VALID,294,VALID,2.29844,
2012-01-14, 00:20:05,VALID,1001.82,VALID,0,VALID,74.0841,VALID,0,VALID,27.4602,VALID,318,VALID,0.494531,
2012-01-14, 00:21:05,VALID,1001.8,VALID,0,VALID,73.9391,VALID,0,VALID,27.4623,VALID,292,VALID,1.41914,
2012-01-14, 00:22:05,VALID,1001.77,VALID,0,VALID,73.9315,VALID,0.0815089,VALID,27.4408,VALID,262,VALID,1.25156,
2012-01-14, 00:23:05,VALID,1001.81,VALID,0,VALID,74.0841,VALID,0,VALID,27.4602,VALID,250,VALID,0.730859,
2012-01-14, 00:24:05,VALID,1001.75,VALID,0,VALID,74.3358,VALID,0,VALID,27.4797,VALID,267,VALID,0.966406,
2012-01-14, 00:25:05,VALID,1001.74,VALID,0,VALID,74.1832,VALID,0,VALID,27.5013,VALID,284,VALID,0.958984,
2012-01-14, 00:26:05,VALID,1001.72,VALID,0,VALID,74.2366,VALID,0,VALID,27.5013,VALID,286,VALID,1.03867,
2012-01-14, 00:27:05,VALID,1001.71,VALID,0,VALID,73.9239,VALID,0,VALID,27.4797,VALID,274,VALID,1.94922,
2012-01-14, 00:28:05,VALID,1001.71,VALID,0,VALID,73.9239,VALID,0,VALID,27.4797,VALID,295,VALID,1.49766,
2012-01-14, 00:29:05,VALID,1001.69,VALID,0,VALID,73.9162,VALID,0,VALID,27.5208,VALID,280,VALID,1.21563,
2012-01-14, 00:30:05,VALID,1001.68,VALID,0,VALID,74.0764,VALID,0.0815089,VALID,27.4797,VALID,291,VALID,1.18281,
2012-01-14, 00:31:05,VALID,1001.65,VALID,0,VALID,73.9925,VALID,0,VALID,27.4797,VALID,294,VALID,1.44414,
2012-01-14, 00:32:05,VALID,1001.62,VALID,0,VALID,73.8781,VALID,0,VALID,27.4818,VALID,295,VALID,1.71016,
2012-01-14, 00:33:05,VALID,1001.63,VALID,0,VALID,74.0917,VALID,0.0815089,VALID,27.5013,VALID,280,VALID,1.22773,
2012-01-14, 00:34:05,VALID,1001.61,VALID,0,VALID,74.0841,VALID,0,VALID,27.4797,VALID,226,VALID,0.533984,
2012-01-14, 00:35:05,VALID,1001.57,VALID,0,VALID,73.9467,VALID,0,VALID,27.4623,VALID,286,VALID,1.1125,
2012-01-14, 00:36:05,VALID,1001.56,VALID,0,VALID,73.7789,VALID,0,VALID,27.4408,VALID,269,VALID,1.75469,
2012-01-14, 00:37:05,VALID,1001.55,VALID,0,VALID,73.4814,VALID,0,VALID,27.4818,VALID,288,VALID,1.61406,
2012-01-14, 00:38:05,VALID,1001.55,VALID,0,VALID,73.4814,VALID,0,VALID,27.4992,VALID,287,VALID,1.60742,
2012-01-14, 00:39:05,VALID,1001.52,VALID,0,VALID,72.9245,VALID,0,VALID,27.5013,VALID,294,VALID,3.30312,
2012-01-14, 00:40:05,VALID,1001.49,VALID,0,VALID,72.7337,VALID,0.0815089,VALID,27.5208,VALID,296,VALID,1.32305,
2012-01-14, 00:41:05,VALID,1001.49,VALID,0,VALID,72.5659,VALID,0.0815089,VALID,27.4992,VALID,283,VALID,1.6625,
2012-01-14, 00:42:05,VALID,1001.5,VALID,0,VALID,72.2608,VALID,0,VALID,27.5013,VALID,295,VALID,1.87031,
2012-01-14, 00:43:05,VALID,1001.46,VALID,0,VALID,72.2608,VALID,0,VALID,27.4818,VALID,276,VALID,2.56562,
2012-01-14, 00:44:05,VALID,1001.48,VALID,0,VALID,72.0929,VALID,0,VALID,27.4992,VALID,295,VALID,1.66641,
2012-01-14, 00:45:04,VALID,1001.49,VALID,0,VALID,72.4896,VALID,0,VALID,27.5013,VALID,294,VALID,0.848047,
2012-01-14, 00:46:04,VALID,1001.42,VALID,0,VALID,72.2074,VALID,0,VALID,27.5034,VALID,295,VALID,2.25664,
2012-01-14, 00:47:04,VALID,1001.41,VALID,0,VALID,72.154,VALID,0,VALID,27.5229,VALID,288,VALID,1.88867,
2012-01-14, 00:48:04,VALID,1001.42,VALID,0,VALID,72.1311,VALID,0,VALID,27.4818,VALID,291,VALID,2.41719,
2012-01-14, 00:49:04,VALID,1001.37,VALID,0,VALID,72.154,VALID,0,VALID,27.4818,VALID,297,VALID,1.38203,
2012-01-14, 00:50:04,VALID,1001.36,VALID,0,VALID,72.3676,VALID,0,VALID,27.5013,VALID,304,VALID,0.953516,
2012-01-14, 00:51:04,VALID,1001.38,VALID,0,VALID,72.4591,VALID,0,VALID,27.4623,VALID,283,VALID,2.1082,
2012-01-14, 00:52:04,VALID,1001.33,VALID,0,VALID,72.81,VALID,0,VALID,27.4428,VALID,297,VALID,1.89531,
2012-01-14, 00:53:04,VALID,1001.34,VALID,0,VALID,73.3517,VALID,0,VALID,27.4039,VALID,291,VALID,1.35117,
2012-01-14, 00:54:04,VALID,1001.27,VALID,0,VALID,73.5806,VALID,0,VALID,27.3454,VALID,288,VALID,0.861328,
2012-01-14, 00:55:04,VALID,1001.28,VALID,0,VALID,74.6715,VALID,0,VALID,27.2869,VALID,340,VALID,0.997656,
2012-01-14, 00:56:04,VALID,1001.3,VALID,0,VALID,75.2284,VALID,0,VALID,27.2285,VALID,295,VALID,1.2457,
2012-01-14, 00:57:04,VALID,1001.29,VALID,0,VALID,75.8692,VALID,0,VALID,27.17,VALID,294,VALID,1.32734,
2012-01-14, 00:58:04,VALID,1001.26,VALID,0,VALID,76.4185,VALID,0,VALID,27.1331,VALID,289,VALID,0.716797,
2012-01-14, 00:59:04,VALID,1001.25,VALID,0,VALID,76.8686,VALID,0,VALID,27.0747,VALID,334,VALID,0.547266,
2012-01-14, 01:00:04,VALID,1001.22,VALID,0,VALID,77.4179,VALID,0,VALID,26.9732,VALID,302,VALID,0.780078,
2012-01-14, 01:01:04,VALID,1001.24,VALID,0,VALID,77.8375,VALID,0,VALID,26.9167,VALID,294,VALID,0.941016,
2012-01-14, 01:02:04,VALID,1001.2,VALID,0,VALID,78.1655,VALID,0,VALID,26.8368,VALID,287,VALID,1.16562,
2012-01-14, 01:03:04,VALID,1001.22,VALID,0,VALID,78.4554,VALID,0.0815089,VALID,26.7978,VALID,293,VALID,1.15234,
2012-01-14, 01:04:04,VALID,1001.2,VALID,0,VALID,78.7072,VALID,0,VALID,26.7609,VALID,300,VALID,0.589844,
2012-01-14, 01:05:04,VALID,1001.19,VALID,0,VALID,79.081,VALID,0,VALID,26.6614,VALID,300,VALID,0.499609,
2012-01-14, 01:06:04,VALID,1001.17,VALID,0,VALID,79.1725,VALID,0,VALID,26.6225,VALID,295,VALID,0.967188,
2012-01-14, 01:07:04,VALID,1001.17,VALID,0,VALID,79.3098,VALID,0.0815089,VALID,26.605,VALID,292,VALID,1.03828,
2012-01-14, 01:08:04,VALID,1001.18,VALID,0,VALID,79.4014,VALID,0,VALID,26.5641,VALID,292,VALID,0.733984,
2012-01-14, 01:09:04,VALID,1001.16,VALID,0,VALID,79.5235,VALID,0.0815089,VALID,26.5251,VALID,293,VALID,0.377734,
2012-01-14, 01:10:04,VALID,1001.17,VALID,0,VALID,79.6608,VALID,0.0815089,VALID,26.5271,VALID,290,VALID,0.964844,
2012-01-14, 01:11:04,VALID,1001.19,VALID,0,VALID,79.7142,VALID,0.0815089,VALID,26.5076,VALID,292,VALID,0.184766,
2012-01-14, 01:12:04,VALID,1001.21,VALID,0,VALID,79.8439,VALID,0,VALID,26.4667,VALID,307,VALID,0.912891,
2012-01-14, 01:13:04,VALID,1001.19,VALID,0,VALID,80.0575,VALID,0,VALID,26.4277,VALID,334,VALID,0.589844,
2012-01-14, 01:14:04,VALID,1001.2,VALID,0,VALID,79.9278,VALID,0,VALID,26.4297,VALID,294,VALID,2.06445,
2012-01-14, 01:15:04,VALID,1001.19,VALID,0,VALID,79.6455,VALID,0,VALID,26.4667,VALID,293,VALID,1.22461,
2012-01-14, 01:16:04,VALID,1001.19,VALID,0,VALID,79.6608,VALID,0.0815089,VALID,26.5056,VALID,288,VALID,0.617578,
2012-01-14, 01:17:04,VALID,1001.19,VALID,0,VALID,79.6455,VALID,0.0815089,VALID,26.5056,VALID,280,VALID,1.08555,
2012-01-14, 01:18:04,VALID,1001.16,VALID,0,VALID,79.7065,VALID,0.0815089,VALID,26.4861,VALID,331,VALID,1.17188,
2012-01-14, 01:19:04,VALID,1001.13,VALID,0,VALID,79.8133,VALID,0,VALID,26.4881,VALID,324,VALID,0.696875,
2012-01-14, 01:20:04,VALID,1001.18,VALID,0,VALID,80.0346,VALID,0,VALID,26.4277,VALID,294,VALID,0.108594,
2012-01-14, 01:21:04,VALID,1001.16,VALID,0,VALID,80.2406,VALID,0.0815089,VALID,26.4102,VALID,305,VALID,0.639063,
2012-01-14, 01:22:04,VALID,1001.16,VALID,0,VALID,80.2787,VALID,0,VALID,26.3498,VALID,305,VALID,0.880469,
2012-01-14, 01:23:04,VALID,1001.15,VALID,0,VALID,80.5076,VALID,0,VALID,26.3303,VALID,280,VALID,0.446484,
2012-01-14, 01:24:04,VALID,1001.11,VALID,0,VALID,80.6449,VALID,0,VALID,26.3128,VALID,305,VALID,0.440625,
2012-01-14, 01:25:04,VALID,1001.1,VALID,0,VALID,80.7975,VALID,0,VALID,26.2329,VALID,339,VALID,0.48125,
2012-01-14, 01:26:04,VALID,1001.07,VALID,0,VALID,80.9653,VALID,0.0815089,VALID,26.2134,VALID,285,VALID,0.657031,
2012-01-14, 01:27:04,VALID,1001.05,VALID,0,VALID,81.0569,VALID,0.0815089,VALID,26.194,VALID,315,VALID,0.392188,
2012-01-14, 01:28:04,VALID,1001.04,VALID,0,VALID,80.9195,VALID,0,VALID,26.1725,VALID,285,VALID,1.53516,
2012-01-14, 01:29:04,VALID,1001.03,VALID,0,VALID,80.6754,VALID,0,VALID,26.2329,VALID,285,VALID,1.40234,
2012-01-14, 01:30:04,VALID,1001.04,VALID,0,VALID,80.4923,VALID,0,VALID,26.2953,VALID,286,VALID,1.34063,
2012-01-14, 01:31:04,VALID,1001.05,VALID,0,VALID,80.4618,VALID,0,VALID,26.3148,VALID,281,VALID,0.528906,
2012-01-14, 01:32:04,VALID,1001.03,VALID,0,VALID,80.1109,VALID,0,VALID,26.3518,VALID,286,VALID,2.44648,
2012-01-14, 01:33:04,VALID,1001.02,VALID,0,VALID,80.1414,VALID,0,VALID,26.3518,VALID,343,VALID,0.982422,
2012-01-14, 01:34:04,VALID,1001.02,VALID,0,VALID,80.4237,VALID,0,VALID,26.2913,VALID,317,VALID,0.502734,
2012-01-14, 01:35:04,VALID,1001.03,VALID,0,VALID,80.5381,VALID,0,VALID,26.2544,VALID,305,VALID,0.621875,
2012-01-14, 01:36:04,VALID,1001.02,VALID,0,VALID,80.7364,VALID,0,VALID,26.2953,VALID,255,VALID,0.862109,
2012-01-14, 01:37:04,VALID,1001.02,VALID,0,VALID,80.3016,VALID,0,VALID,26.3128,VALID,326,VALID,1.24922,
2012-01-14, 01:38:04,VALID,1001.03,VALID,0,VALID,80.2635,VALID,0,VALID,26.3323,VALID,279,VALID,0.48125,
2012-01-14, 01:39:04,VALID,1001.04,VALID,0,VALID,80.1872,VALID,0,VALID,26.3323,VALID,343,VALID,0.451172,
2012-01-14, 01:40:04,VALID,1001.03,VALID,0,VALID,80.2024,VALID,0,VALID,26.3128,VALID,335,VALID,1.15234,
2012-01-14, 01:41:04,VALID,1001.06,VALID,0,VALID,80.21,VALID,0,VALID,26.2953,VALID,347,VALID,0.961328,
2012-01-14, 01:42:04,VALID,1001.07,VALID,0,VALID,80.4542,VALID,0,VALID,26.2349,VALID,273,VALID,0.761719,
2012-01-14, 01:43:04,VALID,1001.06,VALID,0,VALID,80.6449,VALID,0,VALID,26.2174,VALID,313,VALID,0.464844,
2012-01-14, 01:44:04,VALID,1001.07,VALID,0,VALID,80.8356,VALID,0,VALID,26.1375,VALID,346,VALID,0.596484,
2012-01-14, 01:45:04,VALID,1001.04,VALID,0,VALID,81.1331,VALID,0,VALID,26.1355,VALID,284,VALID,1.78008,
2012-01-14, 01:46:04,VALID,1001.03,VALID,0,VALID,80.9806,VALID,0.0815089,VALID,26.155,VALID,294,VALID,0.931641,
2012-01-14, 01:47:04,VALID,1001.05,VALID,0,VALID,81.0645,VALID,0,VALID,26.1745,VALID,318,VALID,0.614453,
2012-01-14, 01:48:04,VALID,1001.08,VALID,0,VALID,80.7059,VALID,0.0815089,VALID,26.2329,VALID,323,VALID,1.39648,
2012-01-14, 01:49:04,VALID,1001.07,VALID,0,VALID,80.3169,VALID,0.0815089,VALID,26.2524,VALID,343,VALID,0.958984,
2012-01-14, 01:50:04,VALID,1001.08,VALID,0,VALID,80.4084,VALID,0.0815089,VALID,26.2719,VALID,295,VALID,0.645312,
2012-01-14, 01:51:04,VALID,1001.07,VALID,0,VALID,80.4084,VALID,0.0815089,VALID,26.2913,VALID,288,VALID,0.385156,
2012-01-14, 01:52:04,VALID,1001.06,VALID,0,VALID,80.5762,VALID,0.0815089,VALID,26.2329,VALID,257,VALID,0.231641,
2012-01-14, 01:53:04,VALID,1001.09,VALID,0,VALID,80.7288,VALID,0,VALID,26.2134,VALID,340,VALID,0.874609,
2012-01-14, 01:54:04,VALID,1001.05,VALID,0,VALID,80.9577,VALID,0.0815089,VALID,26.194,VALID,347,VALID,0.594922,
2012-01-14, 01:55:04,VALID,1001.03,VALID,0,VALID,81.2628,VALID,0,VALID,26.155,VALID,287,VALID,0.417578,
2012-01-14, 01:56:04,VALID,1001.04,VALID,0,VALID,81.4688,VALID,0.0815089,VALID,26.1745,VALID,259,VALID,0.782422,
2012-01-14, 01:57:04,VALID,1001.07,VALID,0,VALID,81.774,VALID,0.0815089,VALID,26.1745,VALID,265,VALID,1.08945,
2012-01-14, 01:58:04,VALID,1001.07,VALID,0,VALID,81.1637,VALID,0,VALID,26.2329,VALID,342,VALID,0.970703,
2012-01-14, 01:59:04,VALID,1001.03,VALID,0,VALID,81.2094,VALID,0.0815089,VALID,26.2913,VALID,311,VALID,1.13008,
2012-01-14, 02:00:04,VALID,1001.07,VALID,0,VALID,80.7746,VALID,0,VALID,26.4102,VALID,320,VALID,1.46719,
2012-01-14, 02:01:04,VALID,1001.06,VALID,0,VALID,80.6525,VALID,0,VALID,26.4687,VALID,289,VALID,0.538281,
2012-01-14, 02:02:04,VALID,1001.04,VALID,0,VALID,80.4084,VALID,0,VALID,26.5251,VALID,266,VALID,0.980859,
2012-01-14, 02:03:04,VALID,1001.04,VALID,0,VALID,80.2558,VALID,0,VALID,26.644,VALID,280,VALID,1.04805,
2012-01-14, 02:04:04,VALID,1001.06,VALID,0,VALID,79.9812,VALID,0,VALID,26.7219,VALID,266,VALID,0.958984,
2012-01-14, 02:05:04,VALID,1001.06,VALID,0,VALID,79.7142,VALID,0,VALID,26.7804,VALID,228,VALID,1.06016,
2012-01-14, 02:06:04,VALID,1001.07,VALID,0,VALID,79.4166,VALID,0,VALID,26.8583,VALID,297,VALID,0.606641,
2012-01-14, 02:07:04,VALID,1001.05,VALID,0,VALID,79.2717,VALID,0,VALID,26.8973,VALID,290,VALID,1.27422,
2012-01-14, 02:08:04,VALID,1001.01,VALID,0,VALID,79.1191,VALID,0,VALID,26.9362,VALID,285,VALID,0.527344,
2012-01-14, 02:09:04,VALID,1001.05,VALID,0,VALID,79.3022,VALID,0,VALID,26.9578,VALID,272,VALID,0.997656,
2012-01-14, 02:10:04,VALID,1001.02,VALID,0,VALID,79.2412,VALID,0,VALID,26.9362,VALID,294,VALID,0.108984,
2012-01-14, 02:11:04,VALID,1001.01,VALID,0,VALID,79.2183,VALID,0,VALID,26.9167,VALID,288,VALID,1.11094,
2012-01-14, 02:12:04,VALID,1001.02,VALID,0,VALID,79.1802,VALID,0,VALID,26.8778,VALID,343,VALID,1.2,
2012-01-14, 02:13:04,VALID,1001.02,VALID,0,VALID,79.1496,VALID,0,VALID,26.8993,VALID,300,VALID,1.02695,
2012-01-14, 02:14:04,VALID,1001,VALID,0,VALID,79.3404,VALID,0,VALID,26.8388,VALID,286,VALID,0.627344,
2012-01-14, 02:15:04,VALID,1001.01,VALID,0,VALID,79.4548,VALID,0,VALID,26.7978,VALID,292,VALID,1.29961,
2012-01-14, 02:16:04,VALID,1001.01,VALID,0,VALID,79.4929,VALID,0.0815089,VALID,26.7783,VALID,281,VALID,1.3,
2012-01-14, 02:17:04,VALID,1001.03,VALID,0,VALID,79.6684,VALID,0,VALID,26.7414,VALID,296,VALID,0.171484,
2012-01-14, 02:18:04,VALID,1000.99,VALID,0,VALID,79.8744,VALID,0,VALID,26.683,VALID,256,VALID,1.53711,
2012-01-14, 02:19:04,VALID,1001.01,VALID,0,VALID,79.8591,VALID,0,VALID,26.7004,VALID,357,VALID,1.29844,
2012-01-14, 02:20:04,VALID,1001.05,VALID,0,VALID,79.5616,VALID,0,VALID,26.7804,VALID,286,VALID,1.67344,
2012-01-14, 02:21:04,VALID,1001.06,VALID,0,VALID,79.4853,VALID,0,VALID,26.7978,VALID,286,VALID,1.71367,
2012-01-14, 02:22:04,VALID,1001.05,VALID,0,VALID,79.081,VALID,0,VALID,26.9167,VALID,297,VALID,2.58477,
2012-01-14, 02:23:04,VALID,1001.05,VALID,0,VALID,78.9665,VALID,0,VALID,26.9557,VALID,318,VALID,1.27422,
2012-01-14, 02:24:04,VALID,1001.07,VALID,0,VALID,78.9894,VALID,0,VALID,26.9537,VALID,294,VALID,1.425,
2012-01-14, 02:25:04,VALID,1001.08,VALID,0,VALID,78.9742,VALID,0.0815089,VALID,26.9732,VALID,260,VALID,0.741797,
2012-01-14, 02:26:04,VALID,1001.08,VALID,0,VALID,78.9971,VALID,0.0815089,VALID,26.9752,VALID,283,VALID,0.349609,
2012-01-14, 02:27:04,VALID,1001.07,VALID,0,VALID,79.2259,VALID,0,VALID,26.9147,VALID,9,VALID,1.30977,
2012-01-14, 02:28:04,VALID,1001.08,VALID,0,VALID,79.3327,VALID,0.0815089,VALID,26.8563,VALID,346,VALID,0.941016,
2012-01-14, 02:29:04,VALID,1001.08,VALID,0,VALID,79.5463,VALID,0.0815089,VALID,26.8173,VALID,281,VALID,1.38633,
2012-01-14, 02:30:04,VALID,1001.06,VALID,0,VALID,79.6608,VALID,0,VALID,26.8603,VALID,272,VALID,1.54023,
2012-01-14, 02:31:04,VALID,1001.07,VALID,0,VALID,79.4243,VALID,0,VALID,26.8778,VALID,282,VALID,1.16523,
2012-01-14, 02:32:04,VALID,1001.04,VALID,0,VALID,79.1115,VALID,0,VALID,26.9167,VALID,283,VALID,1.95898,
2012-01-14, 02:33:04,VALID,1001.05,VALID,0,VALID,78.7453,VALID,0,VALID,26.9752,VALID,290,VALID,2.41641,
2012-01-14, 02:34:04,VALID,1001.06,VALID,0,VALID,78.7682,VALID,0,VALID,27.0162,VALID,313,VALID,1.28359,
2012-01-14, 02:35:04,VALID,1001.05,VALID,0,VALID,79.081,VALID,0,VALID,26.9967,VALID,292,VALID,1.53516,
2012-01-14, 02:36:04,VALID,1001.06,VALID,0,VALID,78.9437,VALID,0,VALID,27.0142,VALID,320,VALID,0.810938,
2012-01-14, 02:37:04,VALID,1001.05,VALID,0,VALID,79.1878,VALID,0,VALID,26.9947,VALID,293,VALID,0.494141,
2012-01-14, 02:38:04,VALID,1001.02,VALID,0,VALID,79.409,VALID,0,VALID,26.9752,VALID,289,VALID,1.6207,
2012-01-14, 02:39:04,VALID,1001.05,VALID,0,VALID,79.4166,VALID,0,VALID,26.9752,VALID,265,VALID,0.957031,
2012-01-14, 02:40:04,VALID,1001.04,VALID,0,VALID,79.5463,VALID,0,VALID,26.9752,VALID,274,VALID,0.978906,
2012-01-14, 02:41:04,VALID,1001.05,VALID,0,VALID,79.4319,VALID,0,VALID,26.9947,VALID,278,VALID,1.94727,
2012-01-14, 02:42:04,VALID,1001.05,VALID,0,VALID,79.2564,VALID,0,VALID,27.0357,VALID,249,VALID,1.0168,
2012-01-14, 02:43:04,VALID,1001.04,VALID,0,VALID,79.1802,VALID,0,VALID,27.0552,VALID,295,VALID,0.80625,
2012-01-14, 02:44:04,VALID,1001.02,VALID,0,VALID,79.3022,VALID,0,VALID,26.9947,VALID,277,VALID,1.51172,
2012-01-14, 02:45:04,VALID,1001.03,VALID,0,VALID,79.3251,VALID,0,VALID,27.0142,VALID,300,VALID,1.46328,
2012-01-14, 02:46:04,VALID,1001.04,VALID,0,VALID,79.2564,VALID,0,VALID,27.0357,VALID,326,VALID,0.340625,
2012-01-14, 02:47:04,VALID,1001.06,VALID,0,VALID,79.1649,VALID,0,VALID,26.9557,VALID,272,VALID,0.540625,
2012-01-14, 02:48:04,VALID,1001.06,VALID,0,VALID,79.4624,VALID,0,VALID,26.9167,VALID,336,VALID,1.18594,
2012-01-14, 02:49:04,VALID,1001.09,VALID,0,VALID,79.7371,VALID,0,VALID,26.8388,VALID,339,VALID,0.724609,
2012-01-14, 02:50:04,VALID,1001.09,VALID,0,VALID,79.8744,VALID,0,VALID,26.7609,VALID,323,VALID,0.335547,
2012-01-14, 02:51:04,VALID,1001.08,VALID,0,VALID,80.2329,VALID,0,VALID,26.644,VALID,313,VALID,0.520703,
2012-01-14, 02:52:04,VALID,1001.07,VALID,0,VALID,80.5305,VALID,0,VALID,26.5855,VALID,305,VALID,0.891797,
2012-01-14, 02:53:04,VALID,1001.09,VALID,0,VALID,80.7517,VALID,0,VALID,26.4881,VALID,352,VALID,0.496094,
2012-01-14, 02:54:04,VALID,1001.1,VALID,0,VALID,80.9729,VALID,0,VALID,26.4297,VALID,299,VALID,0.36875,
2012-01-14, 02:55:04,VALID,1001.11,VALID,0,VALID,80.9043,VALID,0,VALID,26.3343,VALID,346,VALID,0.333984,
2012-01-14, 02:56:04,VALID,1001.08,VALID,0,VALID,81.2323,VALID,0,VALID,26.2524,VALID,343,VALID,0.719141,
2012-01-14, 02:57:04,VALID,1001.09,VALID,0,VALID,81.7358,VALID,0,VALID,26.1959,VALID,252,VALID,0.418359,
2012-01-14, 02:58:04,VALID,1001.06,VALID,0,VALID,82.7047,VALID,0,VALID,26.157,VALID,281,VALID,2.39922,
2012-01-14, 02:59:04,VALID,1001.06,VALID,0,VALID,81.9876,VALID,0,VALID,26.1959,VALID,357,VALID,0.604688,
2012-01-14, 03:00:04,VALID,1001.04,VALID,0,VALID,81.8426,VALID,0,VALID,26.1959,VALID,357,VALID,0.538672,
2012-01-14, 03:01:04,VALID,1001.06,VALID,0,VALID,81.8426,VALID,0,VALID,26.1375,VALID,354,VALID,0.405859,
2012-01-14, 03:02:04,VALID,1001.04,VALID,0,VALID,81.9571,VALID,0,VALID,26.118,VALID,301,VALID,0.7125,
2012-01-14, 03:03:04,VALID,1001.03,VALID,0,VALID,82.1249,VALID,0,VALID,26.0791,VALID,317,VALID,0.685547,
2012-01-14, 03:04:04,VALID,1001.03,VALID,0,VALID,82.3843,VALID,0,VALID,26.0381,VALID,321,VALID,0.659766,
2012-01-14, 03:05:04,VALID,1001,VALID,0,VALID,82.5826,VALID,0,VALID,26.0596,VALID,305,VALID,1.31719,
2012-01-14, 03:06:04,VALID,1001.01,VALID,0,VALID,82.4377,VALID,0,VALID,26.0985,VALID,288,VALID,0.131641,
2012-01-14, 03:07:04,VALID,1001,VALID,0,VALID,82.3385,VALID,0,VALID,26.0985,VALID,349,VALID,0.999219,
2012-01-14, 03:08:04,VALID,1001.02,VALID,0,VALID,82.2775,VALID,0,VALID,26.0985,VALID,347,VALID,0.409375,
2012-01-14, 03:09:04,VALID,1000.99,VALID,0,VALID,82.3461,VALID,0,VALID,26.0381,VALID,347,VALID,0.100781,
2012-01-14, 03:10:04,VALID,1001.01,VALID,0,VALID,82.369,VALID,0,VALID,25.9992,VALID,309,VALID,0.819922,
2012-01-14, 03:11:04,VALID,1001.03,VALID,0,VALID,82.4529,VALID,0,VALID,26.0012,VALID,290,VALID,0.308594,
2012-01-14, 03:12:04,VALID,1001.04,VALID,0,VALID,82.4606,VALID,0,VALID,25.9408,VALID,310,VALID,0.545703,
2012-01-14, 03:13:04,VALID,1001.04,VALID,0,VALID,82.6055,VALID,0,VALID,25.9427,VALID,330,VALID,0.0839844,
2012-01-14, 03:14:04,VALID,1001.06,VALID,0,VALID,82.7428,VALID,0,VALID,25.9038,VALID,330,VALID,0.000390625,
2012-01-14, 03:15:04,VALID,1001.06,VALID,0,VALID,82.9107,VALID,0,VALID,25.9038,VALID,285,VALID,0.369141,
2012-01-14, 03:16:04,VALID,1001.07,VALID,0,VALID,82.7657,VALID,0,VALID,25.8648,VALID,288,VALID,0.360156,
2012-01-14, 03:17:04,VALID,1001.11,VALID,0,VALID,82.9488,VALID,0,VALID,25.8648,VALID,297,VALID,0.473047,
2012-01-14, 03:18:04,VALID,1001.08,VALID,0,VALID,82.8191,VALID,0,VALID,25.8648,VALID,295,VALID,0.236719,
2012-01-14, 03:19:04,VALID,1001.11,VALID,0,VALID,82.8573,VALID,0,VALID,25.8453,VALID,323,VALID,0.609375,
2012-01-14, 03:20:04,VALID,1001.13,VALID,0,VALID,82.903,VALID,0,VALID,25.8259,VALID,296,VALID,0.288672,
2012-01-14, 03:21:04,VALID,1001.13,VALID,0,VALID,82.9107,VALID,0,VALID,25.8278,VALID,289,VALID,0.009375,
2012-01-14, 03:22:04,VALID,1001.12,VALID,0,VALID,83.048,VALID,0,VALID,25.8064,VALID,289,VALID,0,
2012-01-14, 03:23:04,VALID,1001.12,VALID,0,VALID,83.2387,VALID,0,VALID,25.7674,VALID,289,VALID,0.2,
2012-01-14, 03:24:04,VALID,1001.12,VALID,0,VALID,83.3379,VALID,0,VALID,25.7285,VALID,295,VALID,0.183984,
2012-01-14, 03:25:04,VALID,1001.12,VALID,0,VALID,83.5134,VALID,0,VALID,25.7304,VALID,336,VALID,0.948438,
2012-01-14, 03:26:04,VALID,1001.11,VALID,0,VALID,83.6202,VALID,0,VALID,25.6895,VALID,2,VALID,0.317578,
2012-01-14, 03:27:04,VALID,1001.13,VALID,0,VALID,83.6888,VALID,0,VALID,25.6506,VALID,262,VALID,0.790234,
2012-01-14, 03:28:04,VALID,1001.14,VALID,0,VALID,83.6202,VALID,0,VALID,25.6506,VALID,276,VALID,0.0789063,
2012-01-14, 03:29:04,VALID,1001.11,VALID,0,VALID,83.7651,VALID,0,VALID,25.6506,VALID,309,VALID,0.577734,
2012-01-14, 03:30:04,VALID,1001.13,VALID,0,VALID,83.849,VALID,0,VALID,25.6311,VALID,340,VALID,0.128125,
2012-01-14, 03:31:04,VALID,1001.13,VALID,0,VALID,84.0016,VALID,0,VALID,25.6116,VALID,333,VALID,0.513672,
2012-01-14, 03:32:04,VALID,1001.14,VALID,0,VALID,84.1694,VALID,0,VALID,25.6116,VALID,335,VALID,0.255078,
2012-01-14, 03:33:04,VALID,1001.14,VALID,0,VALID,84.2762,VALID,0,VALID,25.6116,VALID,335,VALID,0,
2012-01-14, 03:34:04,VALID,1001.14,VALID,0,VALID,84.4288,VALID,0,VALID,25.5707,VALID,322,VALID,0.369141,
2012-01-14, 03:35:04,VALID,1001.15,VALID,0,VALID,84.3678,VALID,0,VALID,25.5727,VALID,322,VALID,0.0878906,
2012-01-14, 03:36:04,VALID,1001.14,VALID,0,VALID,84.4441,VALID,0,VALID,25.5318,VALID,311,VALID,0.385156,
2012-01-14, 03:37:04,VALID,1001.13,VALID,0,VALID,84.4364,VALID,0,VALID,25.5746,VALID,311,VALID,0.304688,
2012-01-14, 03:38:04,VALID,1001.13,VALID,0,VALID,84.5967,VALID,0,VALID,25.5357,VALID,300,VALID,0.446094,
2012-01-14, 03:39:04,VALID,1001.14,VALID,0,VALID,84.6348,VALID,0,VALID,25.5142,VALID,340,VALID,0.0671875,
2012-01-14, 03:40:04,VALID,1001.16,VALID,0,VALID,84.7263,VALID,0,VALID,25.4928,VALID,342,VALID,0.477344,
2012-01-14, 03:41:04,VALID,1001.16,VALID,0,VALID,84.6958,VALID,0,VALID,25.4948,VALID,343,VALID,0.239844,
2012-01-14, 03:42:04,VALID,1001.15,VALID,0,VALID,84.6806,VALID,0,VALID,25.5532,VALID,298,VALID,0.44375,